Regional Weather Roundup
Issued by NWS Sterling, VA

Home | Current Version | Previous Version | Graphics & Text | Print | Product List | Glossary On
Versions: 1 2 3 4 5 6 7 8 9 10 11 12 13 14 15 16 17 18 19 20 21 22 23 24 25 26 27 28 29 30 31 32 33 34 35 36 37 38 39 40 41 42 43 44 45 46 47 48 49 50
000
ASUS41 KLWX 250910
RWRLWX

REGIONAL WEATHER ROUNDUP
NATIONAL WEATHER SERVICE BALTIMORE MD/WASHINGTON DC
500 AM EDT SAT MAR 25 2017

Note: "FAIR" indicates few or no clouds below 12,000 feet
with no significant weather and/or obstructions to visibility.
 TC=TEMPERATURE CELSIUS

 * =Non NWS site. Station does not report precipitation (e.g. rain,
    snow, etc.), thunder, or fog.

DCZ001-MDZ009-015-VAZ040>042-051-053>054-251000-
WASHINGTON METRO

CITY           SKY/WX    TMP DP  RH WIND       PRES   REMARKS
WASHINGTON NAT CLOUDY    56  48  74 S8        30.15R
DULLES         MOCLDY    56  45  66 S5        30.14S
ANDREWS AFB    MOCLDY    58  46  65 SW7       30.14R
FT BELVOIR     MOCLDY    55  46  70 CALM      30.15R
QUANTICO       CLOUDY    54  48  80 SW8       30.17R
COLLEGE PARK*  MOCLDY    48  45  87 CALM      30.15R
LEESBURG*      CLOUDY    54  50  87 SW3       30.15R
MANASSAS*      MOCLDY    57  47  69 S5        30.15S

$$

MDZ006>007-011-014-251000-
BALTIMORE METRO

CITY           SKY/WX    TMP DP  RH WIND       PRES   REMARKS
BWI AIRPORT    MOCLDY    58  47  66 SW3       30.13R
MD SCIENCE CTR   N/A     57  44  62 MISG      30.14R
MARTIN STATE   PTCLDY    45  43  93 CALM      30.15S
ANNAPOLIS      MOCLDY    61  47  59 CALM      30.13S
FORT MEADE*    MOCLDY    55  45  67 SW5       30.16S

$$

MDZ012-015-019>023-251000-
MARYLAND EASTERN SHORE

CITY           SKY/WX    TMP DP  RH WIND       PRES   REMARKS
OCEAN CITY     PTCLDY    52  45  77 SW8       30.19S
SALISBURY      CLOUDY    57  47  69 SW12      30.17S
BAY BRIDGE AP* MOCLDY    59  46  63 S7        30.14R
CAMBRIDGE*     CLEAR     57  48  72 S8        30.17R
EASTON*        PTCLDY    56  47  70 SW6       30.19S

$$

MDZ017>025-251000-
SOUTHERN MARYLAND

CITY           SKY/WX    TMP DP  RH WIND       PRES   REMARKS
PATUXENT RIVER MOCLDY    58  50  75 SW12G21   30.17R
ST INIGOES     PTCLDY    57  47  69 S8        30.18R
LEONARDTOWN*   PTCLDY    57  46  67 SW8       30.18S

$$

MDZ003>005-251000-
NORTH CENTRAL MARYLAND

CITY           SKY/WX    TMP DP  RH WIND       PRES   REMARKS
FREDERICK*     MOCLDY    52  48  87 CALM      30.16R
HAGERSTOWN APT CLOUDY    58  46  64 S10       30.12S
WESTMINSTER*   MOCLDY    57  48  72 SW8       30.13S

$$

MDZ501>502-251000-
WESTERN MARYLAND

CITY           SKY/WX    TMP DP  RH WIND       PRES   REMARKS
OAKLAND*       CLOUDY    55  45  67 W15G23    30.18S
CUMBERLAND*    CLOUDY    59  46  63 SE3       30.16S

$$

VAZ025>031-251000-
SHENANDOAH VALLEY

CITY           SKY/WX    TMP DP  RH WIND       PRES   REMARKS
WINCHESTER*    MOCLDY    59  45  58 SW9G17    30.13S
FRONT ROYAL*     N/A    N/A N/A N/A MISG        N/A
LURAY*         CLOUDY    59  50  72 SW6       30.16S
NEW MARKET*    CLOUDY    59  46  61 W10       30.17R
STAUNTON*      MOCLDY    55  46  71 SW3       30.21R
WAYNESBORO*    MOCLDY    59  48  67 SW8       30.20R

$$

WVZ021-048>050-054>055-251000-
EASTERN WEST VIRGINIA PANHANDLE

CITY           SKY/WX    TMP DP  RH WIND       PRES   REMARKS
MARTINSBURG    CLOUDY    60  46  59 S8        30.12S
PETERSBURG*    CLOUDY    63  48  58 E5        30.15R

$$

VAZ036>039-050-251000-
CENTRAL FOOTHILLS

CITY           SKY/WX    TMP DP  RH WIND       PRES   REMARKS
CHARLOTTESVILL MOCLDY    58  47  66 S9        30.17S
CULPEPER*      CLOUDY    55  47  77 CALM      30.17R
ORANGE*        CLOUDY    59  45  58 S8        30.18R
GORDONSVILLE*  CLOUDY    58  48  68 SW8       30.16S
WARRENTON*     MOCLDY    57  44  61 CALM      30.15S

$$

VAZ055>057-251000-
NORTH AND CENTRAL PIEDMONT

CITY           SKY/WX    TMP DP  RH WIND       PRES   REMARKS
FREDERICKSBRG* CLOUDY    61  49  64 SW6       30.16S
STAFFORD*      CLOUDY    59  47  64 SW3       30.20S

$$

NCZ024-NYZ072-PAZ021-071-VAZ022-071-251000-
OTHER REGIONAL OBSERVATIONS

CITY           SKY/WX    TMP DP  RH WIND       PRES   REMARKS
NEW YORK CITY  CLOUDY    53  36  52 W9G20     30.08F
PHILADELPHIA   CLOUDY    49  41  74 W8        30.13R
PITTSBURGH     CLOUDY    65  52  62 SW7       30.12S
ROANOKE        PTCLDY    58  45  62 W3        30.26R
RICHMOND       PTCLDY    59  48  67 SW15      30.22S
RALEIGH        MOCLDY    53  48  83 SW7       30.29F

$$

ANZ530>537-251000-
MARINE OBSERVATIONS

STATION/POSITION TIME  TEMP    WIND        PRES
                       AIR SEA DIR/SP/G
                 (UTC) (F)     (DEG/KT/KT) (MB)
THOMAS PT LIGHT  0900   60 44  240/ 10/ 11   N/A
BALT KEY BRIDGE  0848   59     260/  2/  3 1020.4R
COVE POINT       0848   59     240/ 13/ 16 1021.8S
LEWISETTA        0848   59 48  230/ 13/ 16 1021.6F
SOLOMONS ISLAND  0842   56 45  230/ 12/ 15   N/A
PINEY POINT      0848          250/  2/  4   N/A

$$




USA.gov is the U.S. government's official web portal to all federal, state and local government web resources and services.